STARLINK-3050, 49180

Orbit data source: Space-Track

STARLINK-3050, 49180 is a payload satellite owned by SpaceX/Seattle (US) in LEO that was launched on Tue, 14 Sep 2021 UTC via an FALCON 9 launch vehicle from the Air Force Western Test Range (AFWTR). Payload-class satellites include a variety of spacecraft equipped with specific instruments for various scientific and technological missions. These include communications satellites like Starlink; space stations such as the ISS; scientific satellites like the Hubble; Earth observation satellites from companies like Planet Labs, Umbra, and HawkEye 360; GPS; miniature CubeSats for education and research; and military/defense satellites.

Loading next visibility...
Identifier
49180, 2021-082BC
Orbit
LEO
Country
Flag of USUS
Related business
Manufacturer
SpaceX/Seattle
Mission
Operational Commercial Communications
Bus & Motor
STARLINK, Unknown motor
Mass
297 kg wet, ~275 kg dry
Launch date (UTC)
2021-09-14 (4 years ago)
Launch vehicle
FALCON 9
Launch site
Air Force Western Test Range (AFWTR)
Object type
Payload
Rocket body
Debris
Shape & HBR
Box + 1 Pan, 10.1 m
Radar Cross Section
13.562 m², Large (>1 m²)

Expand to show TLE details & history
Last TLE update: 18 hours ago

TLE from 18 hours ago
0 STARLINK-3050
1 49180U 21082BC  25286.42454176  .00000289  00000-0  32038-4 0  9990
2 49180  69.9975 285.7573 0003342 269.1236  90.9540 14.98331242225583
Epoch: 2025-10-13T10:11Z
TLE epoch observation values (Epoch: 2025-10-13T10:11:20.408Z)
Latitude
-0.00001°
Longitude
110.69475°
Altitude
574.515 km
Speed
7.574 km/s
True Right ascension
19h 03m 01s
True Declination
0° 00' 00"
Sunlit
Object was in daylight at epoch
Visualization orbit readout
Latitude
Unknown
Longitude
Unknown
Altitude
Unknown
Speed
Unknown
Apparent Right ascension
Unknown
Apparent Declination
Unknown
Sunlit
N/A
Visualization observer readout
Local Sidereal Time
22:30:28
Azimuth
Unknown
Elevation
Unknown
Doppler factor
Unknown
Orbital elements
Apogee altitude
572.323 km
Perigee altitude
567.678 km
Semi-major axis
6,948.138 km
Eccentricity
0.00033
Inclination
69.9975°
RAAN
285.7573°
Arg. of periapsis
269.1236°
True anomaly
90.99229°
Mean anomaly
90.954°
Eccentric anomaly
90.97315°
Mean motion
3.74749 °/min
Orbital period
96.06 mins
BSTAR
0.000032038
Loading maneuver chart data...
Computing Atmospheric mass density...
Loading historical data...
Loading historical data...
Loading historical data...
Loading historical data...
Loading historical data...
Loading historical data...
Loading historical data...

Documentation

Showing up to 5 results
|